Volver al catálogo

FENGYUN 1C DEB

ActivoPO
NORAD 32361·DEBRIS·🇨🇳 China

Lanzado May 10, 1999 desde Taiyuan Satellite Launch Center

Loading…

Próximos Pases (próximas 24 horas)

TLE

EnvejeciendoSource: Space-Track

Época: Sep 11, 2026, 03:59 UTC

1 32361U 99025CZE 26254.16599691  .00003767  00000-0  88122-3 0  9992
2 32361  98.8432 333.1502 0041795 297.8633  61.8331 14.54750361  2990

Sigue FENGYUN 1C DEB en tiempo real con AllMySat

Download on the App Store